User: anonymous   Login
Location: Wayah Bald
(35.1806°N, 83.5603°W)
Time: 03:06:54
(UTC-05:00)
Language:

Meteor 1-27 Rocket - Orbit

View from above orbital plane
View from above orbital plane
View from above satellite
View from above satellite

Ground track
Ground track

The orbit data is extracted from the following two-line orbital elements,

1 09904U 77024B   14327.52453821  .00000323  00000-0  18429-3 0  1187
2 09904 081.2616 314.8611 0055043 086.1517 033.7445 14.06751692931108
Epoch (UTC): 23 November 2014 12:35:20
Eccentricity: 0.0055043
inclination: 81.2616°
perigee height: 830 km
apogee height: 910 km
right ascension of ascending node: 314.8611°
argument of perigee: 86.1517°
revolutions per day: 14.06751692
mean anomaly at epoch: 33.7445°
orbit number at epoch: 93110

The dashed part of the orbit path shows where the satellite is in the earth's shadow,  

DLR